Temperature
18 18 18 17 17 18 18 18 17 17 17 18 18 17 17 17 17 17 16 16 16 16 16 16 16 16 15 15 15 15 15 15 14 14 14 14 14 13
17 17 17 17 17 17 17 17 17 17 17 17 17 17 17 17 17 16 16 16 16 16 16 15 15 15 15 15 15 15 14 14 14 14 14 14 13 13
17 17 17 17 17 17 17 17 17 17 16 17 17 17 17 16 16 16 16 16 16 16 15 15 15 15 15 15 15 14 14 14 14 14 13 13 13 13
17 17 17 17 17 17 17 17 17 17 16 16 16 16 16 16 16 16 15 15 15 15 15 15 15 15 15 14 14 14 14 14 14 13 13 13 13 12
17 17 17 16 17 17 16 16 16 16 16 16 16 16 16 16 15 15 15 15 15 15 14 14 14 14 14 14 14 14 13 13 13 13 13 12 12 12
17 16 16 16 16 16 16 16 16 16 16 15 15 15 15 15 15 15 14 14 14 14 14 14 14 14 13 13 13 13 13 13 13 12 12 12 12 11
16 16 16 16 16 16 16 16 16 15 15 15 15 15 15 15 14 14 14 14 13 14 14 13 13 13 13 13 13 13 13 12 12 12 12 11 11 11
16 16 16 16 16 15 15 15 15 15 15 15 15 15 15 14 14 14 13 13 13 13 13 13 13 13 13 12 12 12 12 12 12 12 11 11 11 11
16 16 15 15 15 15 15 15 15 15 15 14 14 14 14 14 14 14 13 13 13 13 12 12 12 12 12 12 12 12 12 12 11 11 11 11 10 10
15 15 15 15 15 15 14 14 14 14 14 14 14 14 14 14 13 13 13 13 12 12 12 12 12 12 12 11 11 11 11 11 11 10 10 10 10 10
15 15 15 15 14 14 14 14 14 14 14 14 14 14 13 13 13 13 12 12 12 12 12 12 12 11 11 11 11 11 11 10 10 10 10 10 9 9
14 14 14 14 14 14 14 14 13 13 13 13 13 13 13 13 12 12 12 12 12 11 12 11 11 11 10 11 11 10 10 10 10 10 9 9 9 9
14 14 14 14 14 14 14 13 13 13 13 13 12 12 12 12 12 12 12 12 11 11 11 11 11 11 10 10 10 10 10 10 10 9 9 9 9 8
14 13 13 13 13 13 13 13 13 12 12 12 12 12 12 12 12 12 11 11 11 11 11 11 11 10 10 10 10 10 9 9 9 9 9 9 8 8
13 13 13 13 13 13 13 13 12 12 12 12 12 11 11 11 11 11 11 11 11 11 10 10 10 10 10 10 10 9 9 9 9 9 8 8 8 8
13 13 13 13 12 12 12 12 12 12 11 11 11 11 11 11 11 10 10 10 10 10 10 10 10 10 10 9 9 9 9 9 9 8 8 8 8 8
12 12 12 12 12 12 12 12 11 11 11 11 11 10 10 10 10 10 10 10 9 9 10 10 9 9 9 9 9 9 9 9 9 8 8 8 7 7
12 11 11 11 11 11 11 11 11 11 10 10 10 10 10 10 10 10 9 9 9 9 9 9 9 9 9 9 9 9 9 8 8 8 8 8 7 7
11 11 11 11 10 10 10 10 10 10 10 10 9 9 9 9 9 9 9 9 9 9 9 9 8 8 8 8 8 8 8 8 8 8 8 8 7 7
10 10 10 10 10 10 10 10 9 9 9 9 9 9 9 9 9 9 9 9 8 8 8 8 8 8 8 8 8 8 8 8 8 8 8 7 7 7
10 10 10 9 9 9 9 9 9 9 9 9 9 8 8 8 8 8 8 8 8 8 8 8 8 8 8 8 8 8 8 8 8 8 7 7 7 7
9 9 9 9 9 9 9 9 8 8 8 8 8 8 8 8 8 8 8 8 8 8 8 8 8 8 8 8 8 8 8 8 8 8 7 7 7 7
9 9 9 9 8 8 8 8 8 8 8 7 7 7 7 7 7 7 7 7 7 8 8 8 8 8 8 7 7 7 8 8 8 7 7 7 7 7
Wind_Speed
6 6 5 5 5 5 4 4 3 4 4 3 2 2 3 4 7 8 8 11 14 15 15 15 15 14 14 13 13 12 12 11 11 11 11 10 10 10
4 5 5 5 4 4 4 3 3 4 4 3 2 2 2 4 6 6 7 8 12 14 14 14 13 13 12 12 12 12 11 11 11 10 11 10 10 10
4 4 5 4 4 4 3 2 3 3 4 3 2 1 2 2 2 5 5 5 7 11 12 12 12 12 12 11 11 11 10 11 11 11 10 10 10 10
4 4 4 4 4 4 3 4 3 3 4 4 2 2 2 2 2 3 4 4 4 7 10 11 11 11 10 10 10 10 10 10 10 10 10 11 10 10
4 4 4 3 4 4 4 4 3 4 3 3 3 2 2 2 2 2 1 1 3 5 8 10 10 10 10 10 10 10 10 10 11 11 11 11 10 10
3 3 3 3 3 4 4 4 3 3 3 3 3 2 2 2 2 2 2 1 2 3 4 6 8 9 10 10 10 10 10 11 11 12 12 12 11 11
3 2 2 2 2 2 2 2 2 2 3 3 3 2 2 2 2 2 2 2 2 2 2 3 5 5 7 9 10 10 11 11 12 12 13 13 13 12
2 2 2 0 1 1 2 2 2 2 3 3 3 3 3 2 2 2 2 2 2 2 2 3 4 4 5 6 8 10 11 11 11 12 12 13 13 13
2 2 3 1 1 1 1 2 1 2 3 3 4 3 3 2 2 3 3 3 3 2 2 3 3 3 4 6 10 11 11 11 11 11 12 12 12 13
2 2 2 2 2 3 2 1 1 1 2 2 2 2 2 1 2 3 3 2 2 2 3 3 3 3 3 5 9 12 12 12 12 12 12 13 13 13
0 2 2 2 3 4 2 2 2 1 2 2 1 1 2 3 3 1 2 2 2 2 2 3 2 2 3 3 7 12 13 13 13 13 13 13 14 13
1 2 4 2 2 4 2 2 2 2 1 1 1 0 1 2 3 3 2 2 2 2 2 2 2 2 2 2 4 7 9 11 13 13 13 13 14 11
1 1 2 2 2 3 3 2 3 3 2 2 1 1 1 0 1 2 2 2 2 2 2 2 2 3 3 2 3 5 7 7 9 9 12 13 15 12
3 2 1 0 1 3 2 2 4 4 2 1 1 1 1 1 1 1 1 1 2 2 1 2 2 2 2 2 2 3 5 7 7 7 9 12 14 15
2 3 1 1 2 2 2 2 3 2 2 2 2 2 1 1 1 1 1 2 2 2 1 2 2 2 2 2 2 3 4 4 6 6 7 8 9 9
1 1 2 2 2 2 1 2 2 2 2 2 2 1 0 1 1 2 2 1 1 1 1 1 1 1 2 2 2 3 3 4 4 5 5 5 8 11
2 1 1 1 1 1 1 1 1 1 1 2 2 1 0 1 1 1 1 2 2 2 2 1 2 2 1 1 1 2 3 3 4 5 5 5 5 8
2 2 1 1 1 1 1 1 1 1 2 2 2 2 1 1 1 0 1 1 2 1 1 1 1 1 2 2 3 3 3 3 3 5 4 5 5 5
1 1 1 2 2 2 2 2 1 2 2 2 2 2 2 2 1 1 1 1 1 1 0 1 1 2 3 3 4 6 3 2 3 4 4 4 4 5
0 1 2 2 2 2 3 3 3 2 2 2 2 2 2 2 2 2 1 1 1 1 1 1 2 3 3 3 2 3 8 4 3 4 4 4 3 4
1 1 2 2 2 2 2 2 3 2 3 3 3 2 2 2 2 2 2 1 1 2 2 2 3 4 3 2 2 3 4 9 7 4 4 3 3 3
1 1 2 2 2 2 2 2 2 2 3 3 3 3 2 2 3 3 3 2 2 2 3 2 2 2 3 3 4 3 3 3 7 9 7 6 4 4
2 2 2 2 2 2 2 3 3 3 3 3 4 3 3 3 3 3 3 3 2 3 3 3 3 3 3 4 4 3 3 3 3 4 5 10 12 10
Wind_Direction
251 248 243 248 246 244 230 213 216 244 254 246 235 211 172 189 191 186 194 203 206 208 210 212 213 216 218 218 218 215 216 217 216 216 219 218 216 216
253 259 257 258 258 258 246 232 218 229 248 242 243 237 204 213 189 190 203 202 206 207 207 208 209 211 211 210 209 208 209 211 209 209 211 211 209 206
265 264 264 261 261 272 267 250 240 235 249 261 260 230 232 227 183 198 205 198 201 207 207 207 207 206 203 202 202 202 202 202 202 204 204 200 195 195
268 264 268 263 249 257 265 257 247 239 235 249 260 259 248 229 211 218 207 208 195 201 202 200 200 198 196 196 195 197 198 199 200 200 196 192 192 194
272 265 265 264 259 259 261 264 263 262 243 233 245 243 244 224 216 234 226 185 205 202 196 194 190 189 191 192 193 196 197 197 196 194 190 188 188 189
287 289 286 269 264 263 259 262 266 268 254 238 240 237 227 220 202 211 236 231 231 212 184 179 182 187 192 192 195 197 198 197 195 190 186 184 184 186
297 297 296 324 338 313 291 296 287 277 274 260 253 259 243 208 214 222 230 240 253 213 187 187 175 180 193 198 199 200 199 198 196 191 188 186 186 186
309 309 271 71 21 348 317 295 269 262 272 269 263 253 252 234 224 220 228 240 247 212 196 218 190 191 184 181 187 191 195 195 194 193 192 190 189 187
320 309 304 340 57 345 293 287 317 283 252 259 261 255 253 240 216 235 238 248 255 221 212 230 205 205 179 179 183 187 189 190 191 192 191 190 189 186
348 341 348 25 2 347 314 305 328 355 291 268 262 249 247 224 223 227 238 249 249 225 204 224 212 203 175 176 188 190 192 193 193 192 194 193 190 188
53 29 22 53 5 349 328 329 335 354 13 29 56 241 222 209 201 196 216 235 262 239 208 202 196 190 182 188 189 194 198 198 198 198 198 199 198 194
165 119 75 56 10 353 320 309 292 299 304 333 38 63 150 164 190 210 217 239 266 235 204 195 195 179 197 193 181 188 199 204 203 204 203 201 198 197
315 127 98 69 37 345 320 310 294 290 275 250 228 163 141 174 203 214 234 254 263 253 193 185 204 197 196 189 187 189 192 193 198 205 207 204 200 196
333 18 64 7 302 306 314 319 307 297 267 253 233 216 230 238 240 224 207 246 292 282 231 204 221 207 205 202 198 187 193 192 191 194 198 203 208 209
359 21 15 249 278 249 248 295 304 294 290 274 268 257 241 211 175 192 195 210 255 284 238 230 250 220 222 224 196 183 191 200 194 192 193 196 199 201
283 257 223 238 269 308 290 255 254 289 303 300 303 286 149 155 183 190 198 210 229 243 223 219 227 208 243 248 203 193 185 189 191 195 193 192 196 201
335 298 251 222 245 257 256 266 281 268 291 307 314 316 233 196 219 206 206 218 231 228 207 208 204 191 201 239 242 225 204 198 190 193 195 198 197 201
2 307 327 340 335 330 337 359 356 350 340 334 330 332 321 285 251 250 239 249 247 223 196 188 194 214 232 241 237 242 228 212 195 190 193 198 205 203
11 331 5 359 351 353 1 5 10 7 347 336 343 346 336 330 328 297 266 274 278 269 213 197 207 226 247 253 233 218 223 226 201 191 195 200 206 205
300 347 350 1 16 12 11 6 4 8 356 335 337 342 333 327 324 314 303 279 269 266 249 227 222 233 251 268 260 224 213 215 210 212 210 206 203 199
35 8 356 360 17 21 15 6 354 359 360 343 340 345 338 331 320 311 305 279 266 264 264 257 249 239 252 268 264 243 216 213 213 207 201 203 207 203
357 3 13 13 17 13 2 356 349 0 4 353 348 340 330 324 310 299 301 292 271 277 278 266 243 244 249 259 263 259 245 213 220 226 221 215 205 212
10 7 18 21 25 16 9 4 7 15 11 354 348 341 335 323 311 304 296 292 293 288 282 269 247 241 253 255 254 249 242 228 216 212 228 231 233 233
Height
1544 1544 1544 1544 1545 1546 1546 1546 1547 1546 1545 1546 1547 1546 1546 1546 1547 1547 1547 1547 1547 1548 1548 1549 1549 1550 1550 1551 1552 1552 1553 1553 1554 1554 1554 1554 1555 1555
1541 1540 1540 1540 1541 1541 1542 1542 1542 1542 1542 1542 1542 1542 1543 1543 1543 1543 1543 1542 1543 1543 1543 1543 1544 1545 1545 1546 1546 1547 1548 1548 1549 1549 1550 1550 1550 1551
1537 1537 1536 1537 1536 1537 1538 1538 1538 1538 1538 1538 1538 1538 1539 1539 1539 1539 1538 1538 1538 1538 1538 1539 1539 1540 1540 1541 1541 1542 1543 1543 1544 1544 1545 1545 1546 1546
1534 1533 1533 1533 1533 1533 1533 1534 1534 1534 1534 1534 1534 1534 1534 1534 1534 1534 1534 1534 1533 1533 1533 1534 1535 1535 1536 1536 1537 1537 1538 1538 1539 1539 1540 1540 1541 1542
1531 1530 1530 1529 1529 1530 1530 1530 1530 1530 1530 1530 1529 1530 1530 1530 1530 1530 1530 1529 1529 1529 1529 1530 1530 1530 1531 1531 1532 1532 1533 1533 1534 1534 1535 1535 1536 1537
1528 1527 1527 1526 1526 1526 1526 1526 1526 1526 1526 1526 1525 1526 1526 1526 1526 1525 1525 1525 1525 1525 1525 1525 1525 1526 1526 1527 1527 1528 1528 1529 1529 1529 1530 1531 1532 1533
1525 1524 1524 1523 1523 1523 1523 1522 1522 1522 1522 1522 1522 1522 1521 1521 1521 1521 1521 1521 1521 1521 1521 1521 1521 1521 1521 1522 1522 1523 1523 1524 1524 1525 1525 1526 1527 1528
1523 1522 1521 1521 1520 1520 1519 1519 1519 1519 1518 1518 1518 1518 1517 1517 1517 1517 1517 1517 1517 1518 1517 1517 1517 1517 1518 1518 1518 1519 1519 1519 1520 1520 1521 1522 1523 1524
1520 1520 1519 1518 1517 1517 1516 1516 1516 1515 1515 1515 1514 1514 1513 1513 1513 1512 1512 1513 1513 1513 1513 1513 1514 1513 1514 1514 1515 1515 1515 1515 1516 1516 1517 1518 1519 1520
1518 1517 1516 1515 1514 1514 1513 1513 1512 1512 1512 1511 1511 1510 1510 1510 1510 1510 1510 1510 1510 1510 1510 1510 1510 1510 1510 1510 1511 1511 1511 1512 1512 1512 1513 1514 1515 1516
1515 1515 1514 1513 1512 1512 1511 1510 1509 1509 1508 1508 1507 1507 1507 1507 1506 1506 1506 1507 1506 1506 1507 1506 1506 1506 1507 1507 1507 1507 1508 1508 1508 1509 1509 1510 1511 1512
1513 1512 1511 1511 1510 1509 1509 1508 1507 1506 1506 1505 1504 1504 1504 1504 1504 1504 1503 1503 1503 1503 1503 1503 1503 1503 1503 1503 1503 1504 1504 1504 1504 1505 1506 1506 1508 1509
1511 1510 1509 1508 1508 1507 1506 1505 1504 1504 1503 1503 1502 1502 1501 1501 1501 1500 1500 1500 1500 1499 1500 1499 1499 1499 1500 1499 1499 1500 1500 1500 1501 1501 1502 1503 1504 1505
1509 1508 1507 1506 1506 1505 1504 1503 1502 1502 1501 1500 1500 1499 1499 1498 1498 1497 1497 1497 1497 1497 1497 1496 1496 1496 1496 1496 1496 1496 1496 1497 1498 1498 1499 1500 1501 1502
1506 1506 1505 1504 1503 1502 1501 1501 1500 1499 1499 1498 1497 1497 1496 1495 1495 1494 1494 1493 1493 1493 1493 1493 1493 1493 1493 1493 1492 1493 1493 1494 1495 1495 1495 1496 1497 1498
1503 1503 1502 1501 1501 1500 1499 1498 1498 1497 1496 1496 1495 1495 1494 1493 1492 1492 1491 1491 1490 1490 1490 1490 1490 1490 1490 1490 1490 1490 1490 1491 1491 1492 1492 1493 1494 1495
1501 1500 1499 1499 1498 1498 1497 1497 1496 1495 1495 1494 1494 1493 1492 1491 1490 1490 1489 1489 1489 1488 1487 1488 1487 1487 1487 1488 1488 1487 1488 1488 1488 1489 1489 1489 1490 1491
1499 1498 1498 1497 1497 1496 1496 1495 1494 1493 1493 1492 1492 1491 1490 1489 1489 1488 1488 1487 1487 1486 1486 1485 1485 1485 1485 1485 1485 1485 1485 1485 1485 1486 1486 1486 1487 1488
1497 1497 1497 1496 1496 1495 1494 1493 1493 1492 1491 1491 1490 1489 1489 1488 1487 1486 1485 1485 1485 1485 1484 1484 1484 1483 1483 1482 1482 1482 1482 1482 1483 1483 1483 1483 1484 1484
1496 1496 1496 1496 1495 1494 1493 1492 1491 1490 1490 1489 1488 1488 1487 1486 1485 1485 1484 1483 1483 1483 1482 1482 1482 1482 1481 1481 1480 1480 1480 1480 1480 1480 1480 1481 1481 1482
1496 1495 1495 1495 1494 1493 1492 1491 1490 1489 1488 1487 1486 1485 1485 1484 1483 1483 1482 1481 1481 1481 1480 1480 1480 1480 1479 1479 1478 1477 1477 1477 1477 1477 1478 1478 1478 1479
1494 1494 1494 1493 1492 1491 1490 1489 1488 1487 1486 1486 1485 1484 1483 1482 1481 1480 1480 1479 1479 1478 1477 1477 1477 1477 1477 1476 1475 1474 1474 1474 1474 1474 1475 1475 1475 1475
1493 1493 1492 1491 1490 1489 1488 1487 1487 1486 1485 1484 1482 1482 1481 1480 1479 1478 1478 1477 1476 1475 1475 1475 1474 1474 1474 1473 1472 1472 1471 1471 1471 1471 1471 1472 1472 1473